Theta_e
325 323 327 326 311 307 302 304 310 305 305 304 307 310 311 301 302 301 304 301 301 301 301 306 315 320 323 327 329 331 334 335 338 340 343 344 346 346 346 345 345 344 345 345 346 346 345 344 343
318 319 324 320 306 301 302 309 307 307 303 305 303 305 304 296 301 300 302 300 301 301 301 305 312 317 320 322 325 327 329 331 334 336 339 341 341 343 344 345 344 344 345 345 345 345 346 346 344
315 319 318 312 308 303 302 308 305 302 303 303 300 301 300 296 298 299 299 299 301 301 301 304 310 314 317 319 320 322 324 326 328 331 333 335 336 338 339 339 341 343 343 343 343 345 344 344 344
316 322 318 306 303 308 308 306 304 301 301 302 302 295 295 296 297 297 299 299 300 300 301 301 307 311 314 315 317 318 320 321 322 324 327 328 330 331 333 335 336 336 338 340 342 342 342 343 344
319 318 307 304 305 306 305 305 304 301 300 299 300 295 293 294 297 298 299 299 299 300 300 300 303 306 310 312 313 314 315 315 317 319 320 321 322 324 326 329 331 331 334 336 337 338 339 341 341
314 314 303 300 304 303 302 304 302 301 300 298 299 297 294 295 296 297 298 298 299 299 300 300 301 301 304 307 309 310 310 311 312 313 314 314 316 317 319 322 324 326 328 329 330 332 333 334 338
313 311 305 305 304 302 300 302 301 300 299 295 297 296 294 294 296 297 298 299 299 299 299 300 300 301 302 302 304 305 306 307 307 308 308 308 310 312 312 314 317 319 322 325 326 326 326 328 333
314 312 306 306 304 304 298 296 297 299 295 296 296 297 294 294 295 296 297 297 298 298 298 298 299 300 300 301 300 301 303 303 304 304 304 305 307 308 308 307 310 312 314 317 319 319 320 321 326
313 307 304 304 304 304 298 297 292 293 293 292 292 293 293 294 294 295 296 296 297 297 297 298 298 299 300 299 299 301 301 302 302 303 303 305 304 304 306 305 306 308 309 311 313 314 314 316 321
309 307 305 301 301 301 299 301 297 297 291 288 290 289 291 292 293 292 292 293 293 294 295 296 297 297 299 299 300 301 301 301 300 300 302 302 303 302 303 305 305 306 306 308 310 311 313 314 314
302 303 300 298 299 297 295 294 296 301 297 297 289 288 290 291 290 290 290 291 291 293 294 295 296 297 298 298 299 299 299 299 299 299 300 301 302 302 302 303 303 304 304 303 305 306 306 308 309
296 294 295 293 294 296 294 294 292 295 292 293 294 292 290 290 290 289 289 290 291 292 293 294 295 295 296 298 297 297 297 297 297 297 298 299 299 300 300 300 301 301 302 301 302 303 304 305 306
294 292 292 293 293 294 294 293 293 289 290 291 291 290 289 288 288 289 290 291 291 291 292 292 294 294 295 295 296 296 295 295 295 295 295 297 297 297 298 298 299 298 299 299 300 300 302 303 303
292 292 291 291 291 291 291 291 292 292 290 289 289 288 288 288 288 289 290 289 290 290 291 292 292 293 293 293 294 293 293 293 293 292 292 293 294 294 294 295 294 295 296 297 298 298 299 300 300
292 289 290 289 289 289 290 289 289 292 291 290 290 290 289 288 288 288 289 288 289 289 291 291 291 291 291 291 291 291 291 291 291 291 291 291 292 292 292 292 292 293 295 295 296 296 298 297 298
291 291 288 287 288 288 289 288 290 291 290 289 289 289 288 288 288 289 289 289 289 288 288 289 290 290 290 290 290 290 290 290 290 290 290 290 290 291 291 291 290 292 293 294 294 294 295 295 295
289 286 287 286 286 286 287 288 288 291 289 290 290 289 289 288 288 289 289 289 288 288 288 288 289 289 289 289 290 290 290 290 290 290 289 289 289 290 290 289 290 291 291 291 292 293 294 293 294
285 284 285 285 284 285 286 286 290 289 289 289 291 290 290 289 288 289 289 289 288 288 288 288 288 289 289 290 290 290 289 289 289 289 289 289 289 289 289 289 289 290 289 289 290 291 293 292 292
286 285 284 285 283 282 285 286 288 290 288 288 290 290 290 289 291 289 289 289 288 288 287 287 287 288 289 290 290 289 287 288 288 288 288 288 288 288 288 288 288 288 288 287 287 289 290 290 291
284 283 284 284 282 281 284 283 287 289 289 289 290 291 290 290 289 288 288 288 287 287 287 287 287 287 288 289 289 289 288 287 287 288 288 288 288 288 287 287 287 287 287 286 286 287 288 289 290
281 281 281 280 282 282 281 284 286 287 289 290 290 291 292 290 289 287 287 287 287 287 287 287 287 287 287 288 288 288 288 288 287 287 287 287 287 287 287 287 287 287 287 285 285 286 286 286 288
279 280 279 279 280 280 282 278 285 288 286 286 288 289 290 291 291 289 287 287 287 288 288 288 287 287 287 287 288 287 287 285 285 286 287 287 287 287 287 287 287 286 286 285 285 286 285 285 284
278 280 280 279 280 278 280 278 285 285 286 287 289 289 290 291 291 289 288 288 288 289 288 288 288 287 287 287 287 288 286 286 286 286 286 286 287 286 286 286 286 285 285 285 285 284 284 285 284
281 280 280 280 279 277 278 278 282 285 285 287 288 288 289 290 291 290 290 289 288 289 288 288 287 287 287 287 287 287 286 286 286 286 286 286 286 286 285 285 285 285 285 284 284 285 284 284 284
280 279 279 277 277 277 277 275 282 286 286 286 286 287 288 290 290 290 289 288 288 287 288 288 287 286 287 286 286 286 286 286 285 285 285 285 285 285 284 285 285 284 284 284 284 284 283 283 283
279 279 280 273 274 277 276 275 284 285 286 287 286 287 286 288 290 289 289 288 288 288 288 287 287 286 286 287 286 287 286 286 286 285 285 285 285 284 284 284 284 284 284 283 283 284 283 283 283
278 276 279 277 270 274 279 282 286 285 285 286 285 285 286 287 288 289 290 289 288 288 288 288 287 287 287 287 287 286 286 286 286 286 286 285 285 284 283 284 283 283 283 283 282 282 282 282 282
277 279 275 277 272 272 277 278 279 283 283 285 285 286 286 286 287 288 289 289 289 288 288 289 288 288 288 287 287 287 287 286 286 286 285 285 285 284 283 283 283 283 283 282 282 282 282 281 281
274 275 275 277 276 274 273 278 289 284 284 284 284 286 286 287 286 288 289 290 289 289 288 288 288 288 288 288 288 287 287 287 286 286 286 286 285 284 283 283 282 282 281 281 281 281 280 279 280
275 278 278 277 274 274 273 276 284 285 285 285 284 285 286 286 287 288 288 290 289 288 288 288 288 287 288 288 288 287 287 287 286 285 286 286 285 284 283 282 281 281 281 281 280 279 279 279 278
Wind_Speed
18 11 5 5 7 6 11 5 3 6 6 3 7 7 7 13 6 3 9 10 10 9 8 12 17 17 18 18 18 18 18 18 17 16 16 14 13 11 8 8 8 8 8 9 9 7 4 5 4
12 12 6 5 8 9 7 6 7 6 8 8 7 3 9 8 8 7 6 11 9 8 8 12 16 16 17 17 17 17 17 17 17 16 17 16 15 15 13 11 11 10 9 9 8 8 9 6 7
11 7 6 5 7 9 4 3 12 10 5 4 5 9 5 5 8 5 7 7 7 8 9 12 16 15 16 16 17 16 17 17 16 16 16 16 15 15 14 13 14 13 12 10 10 11 9 8 7
5 5 5 8 13 5 7 3 9 9 6 4 6 8 7 6 3 5 5 7 7 9 9 11 15 15 16 16 16 16 17 17 17 16 16 15 15 15 16 15 14 12 11 11 11 11 12 12 9
4 4 6 8 9 4 3 6 6 3 4 6 2 5 5 4 4 5 6 6 7 8 8 9 12 14 16 16 16 16 16 16 16 15 15 15 15 15 15 14 14 14 13 13 13 13 12 12 11
6 3 6 8 10 3 3 8 5 4 4 5 4 5 5 4 2 5 5 7 8 8 8 8 8 10 12 16 16 16 16 16 16 15 15 14 14 15 16 16 16 15 13 13 13 12 12 12 12
10 8 12 11 7 7 5 6 5 5 3 7 3 1 5 6 4 4 5 5 7 8 8 8 9 9 8 12 14 14 15 15 15 16 14 12 13 13 15 15 17 17 15 15 14 14 13 13 10
6 7 15 9 10 9 9 4 5 3 6 4 4 2 5 8 3 3 2 4 6 8 8 9 9 8 8 8 12 11 13 15 15 14 16 12 10 12 12 16 16 16 15 15 15 16 15 15 9
3 8 11 9 8 1 11 7 3 2 6 5 4 5 6 5 2 2 2 4 5 6 9 8 9 8 7 6 5 7 10 12 15 14 14 9 8 10 10 11 14 14 15 14 15 15 14 15 12
5 9 6 7 9 3 6 7 11 7 1 5 5 6 4 3 3 2 2 3 6 7 8 8 9 9 7 6 7 8 8 8 10 12 11 8 9 9 9 7 11 12 16 14 15 14 12 10 7
2 4 4 7 8 4 3 2 3 6 6 6 8 9 8 5 4 2 4 5 4 4 6 10 7 8 8 7 6 5 5 6 7 13 11 9 8 8 7 6 7 8 12 9 11 10 8 10 8
3 5 5 3 4 0 3 3 0 6 8 1 9 14 11 8 4 2 1 4 3 5 8 8 8 8 8 5 6 7 7 7 7 10 13 9 7 8 8 7 9 8 8 11 10 7 9 10 9
3 4 4 4 5 5 2 1 2 4 5 7 9 8 9 7 7 3 2 0 2 4 6 8 8 8 7 8 6 7 7 7 9 10 12 10 9 9 8 9 8 9 9 9 9 10 9 9 10
4 6 5 3 4 4 2 2 3 7 10 9 9 8 6 7 6 7 6 3 3 2 5 6 7 7 7 8 9 7 7 8 8 9 11 13 9 9 9 9 9 9 9 9 9 10 9 8 9
6 4 4 3 3 3 5 6 7 10 11 10 9 9 8 8 6 6 4 3 3 3 3 5 7 7 7 8 7 7 7 7 8 8 12 13 12 11 10 9 9 9 9 11 10 10 9 9 9
3 4 4 4 2 2 2 7 7 8 10 11 11 10 10 9 8 7 7 7 6 5 5 5 4 6 7 7 6 6 7 6 7 8 9 12 12 12 10 9 10 10 9 9 9 9 9 9 9
4 6 5 4 2 2 5 8 5 9 11 12 13 12 11 11 10 9 9 7 6 5 5 5 5 5 6 6 6 7 7 7 7 8 8 11 12 12 9 9 9 10 9 9 9 9 10 9 10
1 4 2 5 4 3 7 17 10 11 13 15 15 14 14 14 13 12 10 8 6 5 4 5 4 4 4 3 4 4 5 6 7 7 8 11 10 12 9 9 10 10 9 9 9 11 10 10 11
3 3 5 2 4 5 10 15 15 11 15 16 16 16 15 14 11 12 11 10 8 6 6 5 5 4 3 2 2 4 5 5 6 7 10 10 10 11 11 8 10 9 9 11 12 10 12 9 12
1 2 3 2 1 4 10 20 22 17 19 17 18 16 15 14 13 13 13 11 10 9 7 6 5 4 3 2 3 3 4 4 5 5 7 9 9 10 9 10 9 10 8 11 12 12 9 7 10
1 4 2 4 7 5 12 10 2 2 9 14 14 15 15 16 16 15 15 14 12 10 9 7 6 5 4 5 4 3 3 3 4 4 5 7 8 9 9 10 9 9 8 8 10 11 12 8 8
3 2 1 3 5 5 4 8 11 3 4 7 11 13 15 16 16 16 16 16 14 12 10 8 7 6 5 3 2 2 3 4 4 4 4 4 7 8 9 9 9 9 7 9 9 9 9 9 8
4 0 1 2 4 4 7 5 5 3 4 10 2 7 12 15 17 17 17 16 14 12 11 9 8 7 5 4 3 2 4 3 3 3 3 4 4 6 7 8 8 8 7 9 9 10 10 8 7
6 2 2 2 3 4 4 4 1 2 4 6 4 4 6 11 15 16 15 15 14 12 11 10 10 8 7 5 4 3 4 3 3 2 2 2 2 3 6 6 7 7 8 9 8 9 9 8 7
4 4 2 2 2 3 3 5 8 10 6 5 9 7 5 7 13 15 16 15 14 15 13 11 11 10 8 7 5 4 3 3 2 1 1 1 2 3 4 5 6 6 7 8 8 8 8 8 7
5 3 3 5 3 3 2 8 2 3 4 6 5 4 4 5 10 15 17 16 15 14 14 13 12 11 10 9 8 6 5 3 2 2 1 0 1 2 3 4 5 6 6 7 7 5 6 7 6
5 5 4 2 3 3 7 5 5 6 4 4 5 3 2 3 8 13 15 16 16 15 16 15 13 11 12 11 8 7 5 4 3 3 3 2 1 0 1 3 4 5 5 6 7 5 6 7 7
4 2 4 3 3 5 6 5 8 6 3 6 8 8 4 1 5 11 14 15 14 14 14 14 14 13 11 10 9 7 7 6 5 4 5 4 3 3 2 3 3 4 5 6 7 6 6 7 6
5 5 3 2 2 3 6 4 3 5 2 3 5 6 5 4 3 7 12 14 15 14 14 14 13 13 11 10 9 8 7 6 6 6 5 6 5 4 4 3 3 4 5 5 6 7 7 8 8
3 4 7 5 7 2 4 9 5 4 2 3 2 4 4 3 4 8 13 14 15 15 15 15 14 13 12 11 9 8 7 6 6 6 6 5 6 5 5 4 4 4 4 5 5 7 7 8 9
Wind_Direction
305 308 281 259 247 236 245 163 16 143 153 4 13 18 81 47 19 49 120 24 10 16 20 11 1 7 9 13 16 17 21 20 18 18 22 23 25 26 29 29 27 24 16 9 7 5 294 230 206
307 301 237 271 253 244 240 101 205 76 94 103 66 2 25 76 54 99 165 10 5 19 15 26 3 9 13 15 17 19 19 20 19 19 23 27 25 25 26 31 30 22 16 7 0 2 6 240 214
276 268 272 255 258 261 310 85 87 105 113 117 110 26 26 76 61 63 30 1 7 24 21 28 7 12 17 18 18 19 20 19 18 20 24 27 28 30 28 27 23 24 19 7 4 1 357 5 245
300 206 236 249 260 51 2 52 121 133 102 55 100 80 99 24 40 37 31 14 23 29 22 32 13 12 17 19 20 21 20 18 18 18 23 23 27 28 27 27 30 23 21 10 8 7 4 356 350
235 244 243 261 265 60 68 117 149 127 87 75 346 106 73 77 70 48 43 34 28 38 26 31 23 16 20 20 22 22 21 20 19 19 20 23 28 28 25 25 26 19 20 18 14 9 360 350 348
224 264 258 250 237 114 118 141 122 87 85 92 84 109 83 100 86 38 41 47 32 34 30 23 43 22 26 24 24 24 22 20 20 19 20 22 26 28 26 22 23 18 17 18 16 11 2 350 339
251 231 253 259 261 170 143 148 182 102 122 64 9 63 95 132 84 33 22 44 51 37 33 28 20 14 36 43 23 23 23 20 19 21 18 15 27 28 28 22 19 15 14 14 17 11 358 351 346
275 267 256 240 254 208 133 95 14 334 106 109 344 117 137 105 111 131 37 44 48 37 34 30 26 19 15 18 31 26 21 20 18 16 13 11 17 17 34 21 15 15 9 11 12 9 360 349 349
277 249 250 247 244 160 148 152 90 357 116 78 40 45 75 104 126 142 187 67 43 38 26 32 26 22 18 24 33 29 28 25 21 13 12 7 14 12 7 25 12 13 5 9 9 9 360 352 359
255 240 299 19 23 72 162 204 152 164 114 113 121 113 103 131 115 98 74 52 37 21 33 31 26 18 19 18 21 26 26 27 27 19 13 14 15 10 359 15 8 7 3 6 5 7 353 358 355
31 302 20 36 39 14 120 157 168 205 183 170 185 151 149 134 115 84 32 55 42 18 42 38 32 29 23 33 23 28 30 26 24 24 15 21 20 13 16 11 10 5 8 5 2 4 6 354 348
205 51 12 16 24 107 156 74 168 306 40 53 116 156 150 151 120 93 218 63 34 30 36 38 31 30 34 32 37 36 38 30 30 27 19 19 21 21 21 20 15 15 8 5 5 359 351 353 350
88 108 70 81 69 62 146 152 284 168 110 92 109 134 138 134 134 120 11 103 60 47 42 38 35 36 33 36 41 41 39 36 34 29 27 16 24 20 18 18 16 17 9 5 4 358 354 355 355
117 109 106 74 77 78 266 213 233 144 153 145 151 150 166 165 170 156 190 152 92 69 56 51 48 47 50 49 47 46 39 40 39 38 28 26 22 20 25 20 18 15 10 4 2 358 351 353 354
136 109 147 69 36 63 323 227 228 134 175 177 188 179 178 177 173 175 161 139 113 85 85 67 57 53 55 57 53 51 43 45 42 37 34 28 24 25 22 25 19 12 9 7 4 5 359 359 358
208 229 231 84 342 80 285 272 114 154 186 197 195 193 196 186 189 169 167 161 159 140 121 103 86 69 66 63 58 58 51 49 45 40 36 32 26 23 29 25 19 9 11 9 4 6 358 1 360
202 269 232 150 45 307 236 289 147 181 206 217 210 208 203 196 196 183 177 165 155 135 122 110 104 91 79 71 73 67 57 53 49 43 36 30 30 24 30 27 19 15 15 15 5 4 359 0 356
142 241 203 285 69 245 247 262 251 195 216 226 219 214 211 209 199 183 175 166 158 145 125 119 114 118 103 96 98 85 73 63 54 44 38 32 29 27 26 27 24 21 20 16 9 6 3 7 353
11 321 305 91 51 297 267 277 275 219 221 234 231 222 218 216 195 173 177 171 170 165 162 153 137 133 184 159 113 77 67 66 60 52 38 35 31 28 27 26 24 17 25 17 14 3 1 11 358
186 274 289 135 56 271 299 286 274 256 241 228 235 230 222 214 195 181 184 180 185 176 176 165 143 131 116 101 75 63 85 70 66 64 50 35 35 30 32 26 24 23 19 22 19 13 5 16 18
15 299 337 310 314 235 292 264 199 140 265 236 234 243 228 220 207 193 193 189 186 182 179 176 158 141 116 119 127 111 133 145 97 62 56 38 35 32 30 29 24 22 24 21 18 14 16 4 20
215 35 289 290 303 327 342 292 312 349 262 240 251 229 231 216 213 200 197 192 190 186 177 175 165 157 140 147 135 45 60 87 72 67 58 59 37 33 28 26 23 23 22 22 15 19 14 8 17
54 128 344 305 280 309 169 257 106 54 28 39 24 241 239 225 212 205 199 193 188 181 177 177 173 169 155 149 138 129 99 104 96 87 74 60 60 41 29 23 22 22 20 18 17 15 17 15 11
135 153 187 238 286 252 75 277 298 102 28 345 329 336 270 226 211 207 196 191 185 178 179 181 179 179 171 172 169 161 141 138 139 108 90 60 50 39 32 21 19 20 15 13 8 10 14 12 9
232 212 195 218 211 270 102 255 277 318 8 319 307 320 323 224 208 203 195 192 186 181 183 183 186 187 181 188 190 188 172 168 145 160 79 27 45 37 33 15 15 15 11 7 3 3 3 2 359
197 297 267 240 232 4 153 238 222 111 312 337 301 296 302 249 207 204 198 192 191 187 187 187 187 189 187 191 197 197 197 206 209 204 205 150 29 40 24 11 7 9 5 2 359 355 356 352 349
148 221 32 61 91 263 240 219 230 135 122 28 23 7 354 276 216 205 204 196 196 189 193 192 190 196 190 194 195 199 202 216 232 232 235 238 232 131 352 350 352 358 357 357 351 353 350 345 341
292 14 164 177 245 260 244 262 254 187 108 68 50 31 27 288 240 210 204 201 202 193 194 194 196 195 194 193 196 200 203 214 229 243 247 246 238 225 258 306 329 338 343 348 345 342 342 336 333
166 210 213 321 217 251 285 259 54 145 149 108 57 32 25 14 253 232 218 206 200 194 192 194 196 195 193 193 194 200 206 208 219 233 244 250 243 232 242 267 295 311 323 332 331 329 330 323 322
348 287 210 220 172 206 307 272 190 180 225 190 136 38 37 2 262 224 215 209 202 198 192 189 191 194 198 196 196 200 208 210 218 232 238 232 250 239 238 247 262 279 293 309 315 317 314 313 311